Location: Unspecified
(52.4292°N, 19.3359°E)
Time: 22:39:07
(UTC+02:00)

SR - Pass Details

Date: 02 June 2024
Orbit: 580 x 858 km, 66.7° (Epoch: 12 June)

Event Time Altitude Azimuth Distance (km) Brightness Sun altitude
Rises 21:32:34 0° 317° (NW) 2,937 ? -4.8°
Reaches altitude 10° 21:35:35 10° 338° (NNW) 1,983 ? -5.1°
Maximum altitude 21:38:34 17° 20° (NNE) 1,524 ? -5.4°
Drops below altitude 10° 21:41:27 10° 63° (ENE) 1,920 ? -5.7°
Sets 21:44:19 0° 84° (E) 2,804 ? -6.0°
